Riviere-du-Loup, Quebec

7:46 PM EDT on August 23, 2017 (GMT -0400)
Riviere-du-Loup

Weather History for CWNH - November, 2012

Change the Weather History Date:

Saturday, November 24, 2012

  Actual Average Record
Temperature  
Mean Temperature 34 °F -  
Max Temperature 39 °F - - ()
Min Temperature 30 °F - - ()
Degree Days  
Heating Degree Days 30    
Moisture  
Dew Point 33 °F    
Average Humidity 81    
Maximum Humidity 99    
Minimum Humidity 67    
Precipitation  
Precipitation 0.16 in - - ()
Sea Level Pressure  
Sea Level Pressure 29.40 in    
Wind  
Wind Speed 6 mph ()    
Max Wind Speed 9 mph    
Max Gust Speed 18 mph    
T = Trace of Precipitation, MM = Missing Value Source: Averaged Metar Reports

Daily Weather History Graph

Daily Weather History Graph

Search for Another Location

Airport or City:

Trip Planner

Search our weather history database for the weather conditions in past years. The results will help you decide how hot, cold, wet, or windy it might be!

Date:

Astronomy

Nov. 24, 2012 Rise Set
Actual Time 6:57 AM EST 3:52 PM EST
Civil Twilight 6:22 AM EST 4:26 PM EST
Nautical Twilight 5:44 AM EST 5:05 PM EST
Astronomical Twilight 5:07 AM EST 5:42 PM EST
Moon 1:46 PM EST (11/24) 2:58 AM EST (11/24)
Length of Visible Light 10h 03m
Length of Day
8h 54m
Waxing Gibbous, 87% of the Moon is Illuminated
Nov 24
Waxing Gibbous
Nov 28
Full
Dec 6
Last Quarter
Dec 13
New
Dec 20
First Quarter

Hourly Weather History & Observations

Time (EST) Temp. Windchill Dew Point Humidity Pressure Visibility Wind Dir Wind Speed Gust Speed Precip Events Conditions
12:00 AM 45.7 °F 42.0 °F 37.8 °F 74% 29.50 in - South 6.9 mph - N/A   Unknown
1:00 AM 46 °F - 39 °F 67% 29.49 in - South 8.1 mph - -  
1:00 AM 45.7 °F 41.5 °F 38.7 °F 76% 29.49 in - South 8.1 mph - N/A   Unknown
2:00 AM 45.5 °F 41.8 °F 39.0 °F 78% 29.49 in - SSE 6.9 mph - N/A   Unknown
3:00 AM 45.3 °F 41.1 °F 38.3 °F 76% 29.49 in - SSW 8.1 mph - N/A   Unknown
4:00 AM 42 °F - 39 °F 84% 29.47 in - South 5.8 mph - -  
4:00 AM 42.3 °F 38.6 °F 38.8 °F 88% 29.47 in - South 5.8 mph - 0.01 in   Unknown
5:00 AM 41.4 °F 36.8 °F 38.3 °F 89% 29.46 in - South 6.9 mph - 0.02 in   Unknown
6:00 AM 40.5 °F 37.3 °F 37.9 °F 91% 29.46 in - South 4.6 mph - 0.02 in   Unknown
7:00 AM 40 °F - 37 °F 86% 29.45 in - South 5.8 mph - -  
7:00 AM 39.6 °F 35.4 °F 37.2 °F 91% 29.45 in - South 5.8 mph - N/A   Unknown
8:00 AM 39.4 °F 37.2 °F 36.9 °F 91% 29.45 in - South 3.5 mph - N/A   Unknown
9:00 AM 39.4 °F 35.2 °F 36.7 °F 90% 29.44 in - SSW 5.8 mph - N/A   Unknown
10:00 AM 39 °F - 35 °F 81% 29.43 in - SSW 6.9 mph - -  
10:00 AM 38.8 °F 33.8 °F 35.2 °F 87% 29.43 in - SSW 6.9 mph - N/A   Unknown
11:00 AM 37.8 °F 31.3 °F 31.3 °F 77% 29.40 in - SSW 9.2 mph - N/A   Unknown
12:00 PM 36.9 °F 30.7 °F 30.2 °F 77% 29.39 in - SSW 8.1 mph - N/A   Unknown
1:00 PM 36 °F - 29 °F 68% 29.37 in - SSW 9.2 mph - -  
1:00 PM 36.5 °F 29.7 °F 29.3 °F 75% 29.37 in - SSW 9.2 mph - N/A   Unknown
2:00 PM 36.5 °F 29.7 °F 28.4 °F 72% 29.36 in - SSW 9.2 mph - N/A   Unknown
3:00 PM 35.6 °F 29.2 °F 28.6 °F 76% 29.35 in - SSW 8.1 mph - N/A   Unknown
4:00 PM 35 °F - 28 °F 68% 29.34 in - SSW 8.1 mph - -  
4:00 PM 35.2 °F 28.8 °F 28.2 °F 76% 29.34 in - SSW 8.1 mph - N/A   Unknown
5:00 PM 35.1 °F 28.6 °F 28.6 °F 77% 29.34 in - SSW 8.1 mph - N/A   Unknown
6:00 PM 35.1 °F 27.9 °F 29.7 °F 81% 29.33 in - SSW 9.2 mph 18.4 mph N/A   Unknown
7:00 PM 34 °F - 31 °F 82% 29.33 in - SW 8.1 mph - -  
7:00 PM 34.2 °F 27.5 °F 30.6 °F 87% 29.33 in - SW 8.1 mph - N/A   Unknown
8:00 PM 31.3 °F 26.6 °F 30.9 °F 99% 29.33 in - NNW 4.6 mph - 0.14 in   Unknown
9:00 PM 30.6 °F 27.1 °F 29.8 °F 97% 29.31 in - NW 3.5 mph - 0.02 in   Unknown
10:00 PM 30 °F - 26 °F 80% 29.29 in - NW 5.8 mph - -  
10:00 PM 30.2 °F 24.3 °F 26.2 °F 85% 29.29 in - NW 5.8 mph - N/A   Unknown
11:00 PM 30.2 °F 24.3 °F 25.2 °F 82% 29.29 in - NW 5.8 mph - N/A   Unknown